DLH594 EDDF-DNAA

Flight info

Callsign DLH594
Flight time N/A
Altitude 37000
Route ANEKI2L/18 ANEKI Y163 NATOR DCT TRA DCT RIPUS DCT GERSA DCT SOSON DCT ODINA DCT PIDAD DCT TALEP DCT VAREK DCT ERPIN DCT ETOIL DCT CIRTA/N0463F390 UA605 CSO UR978 AS UA604 KAN/N0467F400 UR778 KUA UV456 OXORU OXORU1N
Aircraft A346/H-SDE2E3FGHIJ3J4J5M1P2RWXYZ/LB1D1

Departure

Time N/A
Airport Frankfurt Main Airport (EDDF)

Arrival

Time 2026-04-30 19:46
Airport Nnamdi Azikiwe International Airport (DNAA)
Time Latitude Longitude Altitude Speed Heading
2026-04-30 14:57 44.77403 8.69099 39233 ft 488 kts 181°
2026-04-30 14:58 44.70589 8.69227 39222 ft 488 kts 181°
2026-04-30 14:58 44.60400 8.69411 39203 ft 488 kts 181°
2026-04-30 15:00 44.43391 8.69689 39181 ft 488 kts 181°
2026-04-30 15:01 44.29857 8.69907 39193 ft 488 kts 181°
2026-04-30 15:01 44.19676 8.70075 39189 ft 488 kts 182°
2026-04-30 15:02 44.12883 8.70183 39200 ft 489 kts 182°
2026-04-30 15:03 43.95988 8.70448 39187 ft 484 kts 182°
2026-04-30 15:04 43.79158 8.70716 39185 ft 483 kts 182°
2026-04-30 15:06 43.62358 8.70978 39184 ft 483 kts 183°
2026-04-30 15:07 43.48991 8.70259 39178 ft 477 kts 193°
2026-04-30 15:08 43.36474 8.64955 39179 ft 467 kts 210°
2026-04-30 15:09 43.21797 8.55437 39167 ft 466 kts 210°
2026-04-30 15:10 43.10060 8.47885 39148 ft 466 kts 210°
2026-04-30 15:11 42.92486 8.36644 39130 ft 464 kts 210°
2026-04-30 15:13 42.77900 8.27372 39120 ft 462 kts 210°
2026-04-30 15:14 42.57665 8.14586 39125 ft 457 kts 211°
2026-04-30 15:17 42.32676 7.98917 39107 ft 457 kts 211°
2026-04-30 15:19 42.09119 7.85867 39116 ft 458 kts 209°
2026-04-30 17:39 24.25164 7.26045 38993 ft 463 kts 183°
2026-04-30 17:42 23.93109 7.29451 39010 ft 463 kts 183°
2026-04-30 17:43 23.77087 7.31145 39008 ft 462 kts 182°
2026-04-30 17:44 23.57881 7.33169 39000 ft 462 kts 182°
2026-04-30 17:47 23.29109 7.37061 38989 ft 463 kts 180°
2026-04-30 17:48 23.06770 7.40277 38973 ft 464 kts 180°
2026-04-30 17:50 22.81163 7.43950 38947 ft 464 kts 180°
2026-04-30 17:52 22.61950 7.46699 38930 ft 464 kts 180°
2026-04-30 17:54 22.33027 7.50821 38907 ft 466 kts 179°
2026-04-30 17:56 22.07277 7.54476 38903 ft 467 kts 179°
2026-04-30 17:58 21.87929 7.57210 38888 ft 468 kts 179°
2026-04-30 18:00 21.62142 7.60849 38879 ft 468 kts 179°
2026-04-30 18:01 21.45993 7.63118 38885 ft 468 kts 178°
2026-04-30 18:02 21.26601 7.65838 38883 ft 468 kts 178°
2026-04-30 18:04 21.07217 7.68546 38876 ft 468 kts 178°
2026-04-30 18:06 20.81392 7.71415 38871 ft 466 kts 180°
2026-04-30 18:08 20.58797 7.73536 38868 ft 466 kts 180°
2026-04-30 18:10 20.34056 7.75845 38874 ft 466 kts 180°
2026-04-30 18:11 20.10380 7.78043 38874 ft 466 kts 179°
2026-04-30 18:13 19.94210 7.79540 38864 ft 467 kts 179°
2026-04-30 18:14 19.78034 7.81036 38872 ft 467 kts 179°
2026-04-30 18:15 19.58633 7.82824 38858 ft 466 kts 179°
2026-04-30 18:16 19.45716 7.84015 38863 ft 466 kts 179°
2026-04-30 18:17 19.39306 7.84606 38859 ft 465 kts 179°
2026-04-30 18:18 19.29628 7.85495 38862 ft 466 kts 179°
2026-04-30 18:18 19.23178 7.86083 38862 ft 464 kts 178°
2026-04-30 18:19 19.16704 7.86678 38860 ft 464 kts 178°
2026-04-30 18:19 19.10310 7.87265 38863 ft 464 kts 178°
2026-04-30 18:20 19.03873 7.87855 38862 ft 464 kts 178°
2026-04-30 18:20 18.97445 7.88444 38862 ft 464 kts 178°
2026-04-30 18:21 18.91005 7.89029 38856 ft 464 kts 178°
2026-04-30 18:21 18.84568 7.89618 38869 ft 464 kts 178°
2026-04-30 18:22 18.78131 7.90207 38872 ft 464 kts 178°
2026-04-30 18:22 18.68478 7.91088 38872 ft 464 kts 178°
2026-04-30 18:23 18.62044 7.91674 38872 ft 464 kts 178°
2026-04-30 18:23 18.55606 7.92257 38869 ft 464 kts 178°
2026-04-30 18:24 18.45953 7.93137 38871 ft 464 kts 178°
2026-04-30 18:25 18.40605 7.93624 38874 ft 464 kts 178°
2026-04-30 18:25 18.30953 7.94500 38874 ft 464 kts 178°
2026-04-30 18:26 18.21304 7.95373 38872 ft 464 kts 177°
2026-04-30 18:27 18.11664 7.96248 38874 ft 463 kts 177°
2026-04-30 18:28 18.02020 7.97121 38872 ft 464 kts 177°
2026-04-30 18:28 17.92369 7.97993 38875 ft 465 kts 177°
2026-04-30 18:29 17.79483 7.99133 38874 ft 465 kts 178°
2026-04-30 18:30 17.66606 8.00258 38877 ft 465 kts 178°
2026-04-30 18:31 17.56944 8.01099 38872 ft 465 kts 178°
2026-04-30 18:32 17.47272 8.01940 38877 ft 465 kts 178°
2026-04-30 18:33 17.37608 8.02781 38879 ft 465 kts 178°
2026-04-30 18:33 17.27933 8.03621 38888 ft 465 kts 178°
2026-04-30 18:34 17.18260 8.04458 38907 ft 465 kts 177°
2026-04-30 18:35 17.11807 8.05018 38926 ft 465 kts 177°
2026-04-30 18:35 17.05355 8.05577 38937 ft 465 kts 177°
2026-04-30 18:36 16.95683 8.06414 38941 ft 465 kts 177°
2026-04-30 18:37 16.86003 8.07250 38871 ft 466 kts 177°
2026-04-30 18:37 16.79582 8.07804 38874 ft 466 kts 177°
2026-04-30 18:38 16.73120 8.08362 38871 ft 466 kts 177°
2026-04-30 18:38 16.66656 8.08920 38870 ft 466 kts 177°
2026-04-30 18:39 16.60192 8.09477 38870 ft 466 kts 177°
2026-04-30 18:39 16.53729 8.10034 38869 ft 466 kts 177°
2026-04-30 18:40 16.47267 8.10589 38877 ft 466 kts 177°
2026-04-30 18:40 16.40796 8.11146 38873 ft 466 kts 177°
2026-04-30 18:41 16.34323 8.11702 38871 ft 466 kts 177°
2026-04-30 18:41 16.27857 8.12258 38877 ft 466 kts 177°
2026-04-30 18:42 16.21390 8.12813 38881 ft 466 kts 177°
2026-04-30 18:42 16.11683 8.13640 38877 ft 467 kts 176°
2026-04-30 18:45 15.76097 8.16687 38872 ft 466 kts 176°
2026-04-30 18:46 15.69629 8.17242 38864 ft 466 kts 176°
2026-04-30 18:46 15.63165 8.17793 38873 ft 466 kts 176°
2026-04-30 18:47 15.56738 8.18342 38869 ft 466 kts 176°
2026-04-30 18:47 15.50275 8.18893 38870 ft 466 kts 176°
2026-04-30 18:48 15.43813 8.19440 38860 ft 466 kts 176°
2026-04-30 18:48 15.37357 8.19992 38864 ft 465 kts 176°
2026-04-30 18:49 15.30905 8.20540 38865 ft 466 kts 176°
2026-04-30 18:49 15.24452 8.21090 38868 ft 465 kts 176°
2026-04-30 18:50 15.17999 8.21639 38868 ft 465 kts 176°
2026-04-30 18:50 15.11543 8.22184 38862 ft 465 kts 175°
2026-04-30 18:51 15.05106 8.22730 38856 ft 464 kts 175°
2026-04-30 18:51 14.98660 8.23278 38861 ft 465 kts 175°
2026-04-30 18:52 14.92225 8.23825 38858 ft 463 kts 175°
2026-04-30 18:52 14.85792 8.24370 38861 ft 464 kts 175°
2026-04-30 18:53 14.79353 8.24915 38852 ft 464 kts 175°
2026-04-30 18:53 14.72958 8.25452 38849 ft 465 kts 175°
2026-04-30 18:54 14.66506 8.25999 38856 ft 465 kts 175°
2026-04-30 18:54 14.60056 8.26546 38854 ft 465 kts 175°
2026-04-30 18:55 14.53601 8.27092 38854 ft 465 kts 175°
2026-04-30 18:55 14.43922 8.27909 38855 ft 465 kts 175°
2026-04-30 18:56 14.34245 8.28725 38852 ft 465 kts 175°
2026-04-30 18:57 14.24563 8.29540 38852 ft 465 kts 175°
2026-04-30 18:57 14.18117 8.30082 38854 ft 465 kts 175°
2026-04-30 18:58 14.08433 8.30896 38862 ft 465 kts 175°
2026-04-30 18:59 13.98758 8.31706 38852 ft 465 kts 175°
2026-04-30 19:00 13.85852 8.32792 38856 ft 465 kts 175°
2026-04-30 19:01 13.72948 8.33875 38857 ft 465 kts 175°
2026-04-30 19:02 13.63265 8.34683 38861 ft 466 kts 174°
2026-04-30 19:03 13.50339 8.35767 38857 ft 466 kts 174°
2026-04-30 19:04 13.37410 8.36847 38861 ft 466 kts 174°
2026-04-30 19:05 13.24521 8.37921 38858 ft 466 kts 174°
2026-04-30 19:06 13.11580 8.38999 38861 ft 467 kts 174°
2026-04-30 19:06 13.01886 8.39897 38870 ft 466 kts 173°
2026-04-30 19:07 12.92198 8.40877 38864 ft 467 kts 173°
2026-04-30 19:08 12.79267 8.42160 38872 ft 466 kts 173°
2026-04-30 19:09 12.69570 8.43124 38860 ft 467 kts 173°
2026-04-30 19:09 12.63113 8.43764 38862 ft 467 kts 173°
2026-04-30 19:10 12.50204 8.45040 38866 ft 468 kts 173°
2026-04-30 19:11 12.41529 8.45896 38872 ft 468 kts 173°
2026-04-30 19:12 12.35049 8.46534 38869 ft 468 kts 173°
2026-04-30 19:12 12.27519 8.47276 38864 ft 468 kts 173°
2026-04-30 19:13 12.15589 8.48452 38864 ft 469 kts 173°
2026-04-30 19:14 12.09066 8.48582 38861 ft 471 kts 184°
2026-04-30 19:14 12.02648 8.47252 38872 ft 473 kts 197°
2026-04-30 19:15 11.96702 8.44518 38871 ft 474 kts 210°
2026-04-30 19:15 11.88577 8.38716 38871 ft 475 kts 214°
2026-04-30 19:16 11.83222 8.34764 38871 ft 475 kts 214°
2026-04-30 19:17 11.75151 8.28849 38883 ft 473 kts 214°
2026-04-30 19:17 11.67115 8.22972 38883 ft 473 kts 214°
2026-04-30 19:18 11.59079 8.17102 38895 ft 473 kts 214°
2026-04-30 19:19 11.53717 8.13185 38894 ft 476 kts 214°
2026-04-30 19:19 11.45610 8.07274 38908 ft 478 kts 214°
2026-04-30 19:20 11.40196 8.03327 38916 ft 478 kts 214°
2026-04-30 19:21 11.32079 7.97414 38927 ft 479 kts 214°
2026-04-30 19:22 11.21262 7.89542 38120 ft 481 kts 214°
2026-04-30 19:22 11.13009 7.83555 35953 ft 487 kts 212°
2026-04-30 19:23 11.03497 7.80013 33645 ft 492 kts 191°
2026-04-30 19:24 10.96750 7.78550 31934 ft 499 kts 190°
2026-04-30 19:24 10.93347 7.77829 31067 ft 502 kts 190°
2026-04-30 19:24 10.86463 7.76404 29289 ft 506 kts 190°
2026-04-30 19:25 10.76232 7.74272 27108 ft 496 kts 190°
2026-04-30 19:26 10.69560 7.72876 25986 ft 484 kts 189°
2026-04-30 19:26 10.63044 7.71512 24994 ft 471 kts 189°
2026-04-30 19:26 10.59858 7.70844 24525 ft 465 kts 189°
2026-04-30 19:27 10.53587 7.69530 23612 ft 455 kts 189°
2026-04-30 19:27 10.47449 7.68247 22619 ft 444 kts 189°
2026-04-30 19:28 10.44440 7.67618 22183 ft 438 kts 189°
2026-04-30 19:28 10.38506 7.66379 21338 ft 432 kts 189°
2026-04-30 19:29 10.32665 7.65161 20428 ft 425 kts 189°
2026-04-30 19:29 10.29783 7.64559 19976 ft 421 kts 189°
2026-04-30 19:30 10.21268 7.62783 18610 ft 412 kts 189°
2026-04-30 19:30 10.15687 7.61619 17640 ft 407 kts 189°
2026-04-30 19:31 10.10174 7.60468 16661 ft 402 kts 189°
2026-04-30 19:31 10.07437 7.59896 16160 ft 401 kts 189°
2026-04-30 19:31 10.01986 7.58762 15176 ft 398 kts 189°
2026-04-30 19:32 9.99282 7.58200 14701 ft 397 kts 189°
2026-04-30 19:32 9.96579 7.57637 14225 ft 396 kts 188°
2026-04-30 19:32 9.93884 7.57076 13750 ft 395 kts 188°
2026-04-30 19:32 9.91200 7.56517 13226 ft 393 kts 189°
2026-04-30 19:33 9.88525 7.55962 12762 ft 391 kts 189°
2026-04-30 19:33 9.85868 7.55408 12308 ft 388 kts 189°
2026-04-30 19:33 9.83235 7.54859 11859 ft 385 kts 189°
2026-04-30 19:33 9.80618 7.54314 11427 ft 382 kts 189°
2026-04-30 19:34 9.78023 7.53773 11002 ft 380 kts 189°
2026-04-30 19:34 9.75454 7.53238 10572 ft 373 kts 189°
2026-04-30 19:34 9.70541 7.52206 10093 ft 342 kts 188°
2026-04-30 19:35 9.68269 7.51730 10093 ft 326 kts 188°
2026-04-30 19:35 9.66098 7.51278 10072 ft 314 kts 188°
2026-04-30 19:35 9.63958 7.50836 10048 ft 313 kts 188°
2026-04-30 19:35 9.61823 7.50394 10027 ft 313 kts 188°
2026-04-30 19:36 9.59685 7.49952 9974 ft 314 kts 188°
2026-04-30 19:36 9.57547 7.49509 9642 ft 313 kts 188°
2026-04-30 19:36 9.53349 7.48639 8973 ft 307 kts 188°
2026-04-30 19:37 9.51268 7.48206 8662 ft 304 kts 188°
2026-04-30 19:37 9.49202 7.47777 8343 ft 302 kts 188°
2026-04-30 19:37 9.47152 7.47353 8023 ft 299 kts 188°
2026-04-30 19:37 9.45119 7.46931 7715 ft 296 kts 188°
2026-04-30 19:38 9.43110 7.46513 7405 ft 293 kts 188°
2026-04-30 19:38 9.41123 7.46100 7101 ft 290 kts 188°
2026-04-30 19:38 9.39164 7.45693 6862 ft 284 kts 188°
2026-04-30 19:38 9.37251 7.45295 6631 ft 277 kts 188°
2026-04-30 19:39 9.35379 7.44905 6394 ft 272 kts 188°
2026-04-30 19:39 9.33542 7.44524 6152 ft 267 kts 189°
2026-04-30 19:39 9.31731 7.44151 5906 ft 262 kts 189°
2026-04-30 19:39 9.29956 7.43784 5671 ft 258 kts 189°
2026-04-30 19:40 9.28216 7.43423 5455 ft 252 kts 189°
2026-04-30 19:40 9.26513 7.43070 5332 ft 249 kts 190°
2026-04-30 19:40 9.24827 7.42673 5211 ft 248 kts 193°
2026-04-30 19:40 9.23190 7.42129 5095 ft 248 kts 203°
2026-04-30 19:41 9.21675 7.41288 4969 ft 248 kts 212°
2026-04-30 19:41 9.20265 7.40305 4834 ft 243 kts 215°
2026-04-30 19:41 9.18913 7.39313 4642 ft 235 kts 215°
2026-04-30 19:41 9.17625 7.38372 4545 ft 224 kts 215°
2026-04-30 19:42 9.16386 7.37479 4397 ft 214 kts 214°
2026-04-30 19:42 9.15177 7.36616 4116 ft 211 kts 214°
2026-04-30 19:42 9.13996 7.35777 3844 ft 202 kts 214°
2026-04-30 19:42 9.12880 7.34984 3605 ft 190 kts 214°
2026-04-30 19:43 9.11825 7.34235 3366 ft 179 kts 214°
2026-04-30 19:43 9.10836 7.33533 3122 ft 168 kts 214°
2026-04-30 19:43 9.09893 7.32863 2932 ft 164 kts 214°
2026-04-30 19:44 9.08048 7.31551 2527 ft 160 kts 214°
2026-04-30 19:44 9.07138 7.30905 2337 ft 159 kts 214°
2026-04-30 19:44 9.06232 7.30262 2129 ft 159 kts 214°
2026-04-30 19:44 9.05322 7.29630 1962 ft 158 kts 214°
2026-04-30 19:45 9.04428 7.28984 1763 ft 158 kts 216°
2026-04-30 19:45 9.03537 7.28337 1553 ft 157 kts 213°
2026-04-30 19:45 9.02640 7.27706 1312 ft 156 kts 214°
2026-04-30 19:45 9.01765 7.27082 1145 ft 150 kts 214°
2026-04-30 19:46 9.01063 7.26586 1133 ft 91 kts 214°
2026-04-30 19:46 9.00758 7.26371 1115 ft 6 kts 208°
2026-04-30 19:46 9.00724 7.26370 1117 ft 11 kts 158°
2026-04-30 19:46 9.00688 7.26397 1116 ft 7 kts 131°
2026-04-30 19:47 9.00653 7.26473 1117 ft 5 kts 126°
2026-04-30 19:47 9.00635 7.26491 1122 ft 9 kts 138°
2026-04-30 19:47 9.00554 7.26569 1120 ft 13 kts 136°
2026-04-30 19:47 9.00482 7.26622 1136 ft 6 kts 148°
2026-04-30 19:48 9.00450 7.26654 1137 ft 6 kts 114°
2026-04-30 19:48 9.00452 7.26701 1137 ft 8 kts 72°
2026-04-30 19:48 9.00489 7.26748 1134 ft 9 kts 20°
2026-04-30 19:48 9.00529 7.26754 1134 ft 6 kts
2026-04-30 19:49 9.00565 7.26755 1134 ft 3 kts
2026-04-30 19:49 9.00570 7.26755 1134 ft 0 kts